Budapest Ferihegy, Hungary

2:53 AM CEST on May 23, 2017 (GMT +0200)
Ferihegy

Weather History for LHBP - April, 2013

Change the Weather History Date:

Thursday, April 4, 2013

  Actual Average Record
Temperature  
Mean Temperature 40 °F -  
Max Temperature 44 °F 60 °F 129 °F (2001)
Min Temperature 35 °F 40 °F 21 °F (2015)
Degree Days  
Heating Degree Days 26    
Moisture  
Dew Point 37 °F    
Average Humidity 90    
Maximum Humidity 100    
Minimum Humidity 75    
Precipitation  
Precipitation 0.00 in - - ()
Sea Level Pressure  
Sea Level Pressure 29.79 in    
Wind  
Wind Speed 8 mph ()    
Max Wind Speed 12 mph    
Max Gust Speed -    
Visibility 4.5 miles    
Events Rain    
Averages and records for this station are not official NWS values.
T = Trace of Precipitation, MM = Missing Value Source: Averaged Metar Reports

Daily Weather History Graph

Daily Weather History Graph

Search for Another Location

Airport or City:

Trip Planner

Search our weather history database for the weather conditions in past years. The results will help you decide how hot, cold, wet, or windy it might be!

Date:

Astronomy

Apr. 04, 2013 Rise Set
Actual Time 6:15 AM CEST 7:16 PM CEST
Civil Twilight 5:44 AM CEST 7:48 PM CEST
Nautical Twilight 5:07 AM CEST 8:25 PM CEST
Astronomical Twilight 4:27 AM CEST 9:05 PM CEST
Moon 2:53 AM CEST (4/4) 12:51 PM CEST (4/4)
Length of Visible Light 14h 03m
Length of Day
13h 01m
Last Quarter, 36% of the Moon is Illuminated
Apr 4
Last Quarter
Apr 10
New
Apr 18
First Quarter
Apr 25
Full
May 2
Last Quarter

Hourly Weather History & Observations

Time (CEST) Temp. Windchill Dew Point Humidity Pressure Visibility Wind Dir Wind Speed Gust Speed Precip Events Conditions
12:00 AM 37.4 °F 29.8 °F 37.4 °F 100% 29.74 in 1.7 mi WNW 11.5 mph - N/A   Light Drizzle
12:30 AM 37.4 °F 30.3 °F 37.4 °F 100% 29.74 in 1.5 mi WNW 10.4 mph - N/A   Light Drizzle
1:00 AM 37.4 °F 30.8 °F 37.4 °F 100% 29.74 in 1.2 mi WNW 9.2 mph - N/A Rain Light Rain
1:30 AM 37.4 °F 30.8 °F 37.4 °F 100% 29.74 in 1.5 mi West 9.2 mph - N/A Rain Light Rain
2:00 AM 37.4 °F 30.3 °F 37.4 °F 100% 29.74 in 2.5 mi WNW 10.4 mph - N/A   Mostly Cloudy
2:30 AM 37.4 °F 29.8 °F 37.4 °F 100% 29.71 in 2.5 mi WNW 11.5 mph - N/A   Overcast
3:00 AM 37.4 °F 30.3 °F 37.4 °F 100% 29.71 in 2.5 mi WNW 10.4 mph - N/A   Mostly Cloudy
3:30 AM 37.4 °F 30.3 °F 37.4 °F 100% 29.71 in 3.7 mi WNW 10.4 mph - N/A   Overcast
4:00 AM 37.4 °F 30.3 °F 37.4 °F 100% 29.71 in 3.7 mi West 10.4 mph - N/A   Overcast
4:30 AM 37.4 °F 30.3 °F 37.4 °F 100% 29.74 in 3.7 mi WNW 10.4 mph - N/A   Mostly Cloudy
5:00 AM 37.4 °F 31.4 °F 37.4 °F 100% 29.74 in 3.7 mi WNW 8.1 mph - N/A   Mostly Cloudy
5:30 AM 37.4 °F 31.4 °F 37.4 °F 100% 29.74 in 4.3 mi West 8.1 mph - N/A   Mostly Cloudy
6:00 AM 37.4 °F 32.1 °F 37.4 °F 100% 29.74 in 4.3 mi WNW 6.9 mph - N/A   Overcast
6:30 AM 37.4 °F 30.8 °F 37.4 °F 100% 29.74 in - WNW 9.2 mph - N/A   Overcast
7:00 AM 35.6 °F 29.2 °F 35.6 °F 100% 29.74 in 2.8 mi WNW 8.1 mph - N/A   Overcast
7:30 AM 37.4 °F 31.4 °F 37.4 °F 100% 29.74 in 3.1 mi WNW 8.1 mph - N/A   Overcast
8:00 AM 37.4 °F 31.4 °F 37.4 °F 100% 29.74 in 3.1 mi WNW 8.1 mph - N/A   Mostly Cloudy
8:30 AM 37.4 °F 30.8 °F 33.8 °F 87% 29.74 in 3.7 mi NW 9.2 mph - N/A   Mostly Cloudy
9:00 AM 37.4 °F 30.8 °F 33.8 °F 87% 29.77 in 3.7 mi NW 9.2 mph - N/A   Mostly Cloudy
9:30 AM 37.4 °F 32.1 °F 33.8 °F 87% 29.77 in 3.7 mi WNW 6.9 mph - N/A   Mostly Cloudy
10:00 AM 37.4 °F 30.3 °F 33.8 °F 87% 29.77 in 3.7 mi West 10.4 mph - N/A   Mostly Cloudy
10:30 AM 39.2 °F 32.5 °F 33.8 °F 81% 29.77 in 5.0 mi WNW 10.4 mph - N/A   Mostly Cloudy
11:00 AM 39.2 °F 34.2 °F 32.0 °F 75% 29.77 in 5.0 mi West 6.9 mph - N/A   Mostly Cloudy
11:30 AM 41.0 °F 36.4 °F 37.4 °F 87% 29.80 in 5.0 mi SW 6.9 mph - N/A   Mostly Cloudy
12:00 PM 41.0 °F 34.3 °F 37.4 °F 87% 29.80 in 5.0 mi SW 11.5 mph - N/A   Mostly Cloudy
12:30 PM 41.0 °F 34.3 °F 37.4 °F 87% 29.80 in 5.0 mi SW 11.5 mph - N/A   Mostly Cloudy
1:00 PM 41.0 °F 34.3 °F 37.4 °F 87% 29.80 in 5.0 mi WSW 11.5 mph - N/A   Mostly Cloudy
1:30 PM 41.0 °F 35.8 °F 37.4 °F 87% 29.80 in 5.0 mi West 8.1 mph - N/A   Mostly Cloudy
2:00 PM 42.8 °F 37.0 °F 37.4 °F 81% 29.80 in 5.0 mi WSW 10.4 mph - N/A   Mostly Cloudy
2:30 PM 44.6 °F 39.7 °F 39.2 °F 81% 29.80 in 6.2 mi WSW 9.2 mph - N/A   Mostly Cloudy
3:00 PM 44.6 °F 39.2 °F 39.2 °F 81% 29.80 in 6.2 mi WSW 10.4 mph - N/A   Mostly Cloudy
3:30 PM 44.6 °F 39.2 °F 39.2 °F 81% 29.80 in 6.2 mi WSW 10.4 mph - N/A   Mostly Cloudy
4:00 PM 44.6 °F 38.8 °F 39.2 °F 81% 29.83 in 6.2 mi WSW 11.5 mph - N/A   Mostly Cloudy
4:30 PM 44.6 °F 38.8 °F 37.4 °F 76% 29.83 in 6.2 mi WSW 11.5 mph - N/A   Mostly Cloudy
5:00 PM 42.8 °F 37.0 °F 37.4 °F 81% 29.83 in 6.2 mi WSW 10.4 mph - N/A   Mostly Cloudy
5:30 PM 42.8 °F 37.5 °F 37.4 °F 81% 29.83 in 6.2 mi West 9.2 mph - N/A   Mostly Cloudy
6:00 PM 42.8 °F 38.0 °F 39.2 °F 87% 29.83 in 6.2 mi WSW 8.1 mph - N/A   Mostly Cloudy
6:30 PM 42.8 °F 38.0 °F 37.4 °F 81% 29.83 in 5.0 mi SW 8.1 mph - N/A   Mostly Cloudy
7:00 PM 42.8 °F 38.6 °F 37.4 °F 81% 29.83 in 5.0 mi WSW 6.9 mph - N/A   Mostly Cloudy
7:30 PM 42.8 °F 40.1 °F 37.4 °F 81% 29.83 in 5.0 mi SW 4.6 mph - N/A   Mostly Cloudy
8:00 PM 42.8 °F 41.1 °F 37.4 °F 81% 29.83 in 5.0 mi Variable 3.5 mph - N/A   Mostly Cloudy
8:30 PM 41.0 °F 37.1 °F 37.4 °F 87% 29.83 in 5.0 mi SSW 5.8 mph - N/A   Mostly Cloudy
9:00 PM 41.0 °F 36.4 °F 37.4 °F 87% 29.86 in 5.0 mi South 6.9 mph - N/A   Mostly Cloudy
9:30 PM 41.0 °F 35.2 °F 37.4 °F 87% 29.86 in 6.2 mi SSW 9.2 mph - N/A   Mostly Cloudy
10:00 PM 41.0 °F 36.4 °F 37.4 °F 87% 29.86 in 6.2 mi SSW 6.9 mph - N/A   Mostly Cloudy
10:30 PM 41.0 °F 39.0 °F 37.4 °F 87% 29.86 in 6.2 mi Variable 3.5 mph - N/A   Overcast
11:00 PM 41.0 °F - 37.4 °F 87% 29.86 in 6.2 mi Calm Calm - N/A   Mostly Cloudy
11:30 PM 39.2 °F - 37.4 °F 93% 29.86 in 5.0 mi Variable 1.2 mph - N/A   Unknown